Location: Unspecified
(0.0000°N, 0.0000°E)
Time: 14:53:41
(UTC+00:00)

Tiangong 1 - Pass Details

Date: 28 April 2017
Orbit: 315 x 342 km, 42.8° (Epoch: 26 July)

Event Time Altitude Azimuth Distance (km) Brightness Sun altitude
Rises 19:15:03 0° 235° (SW) 2,133 5.4 -18.8°
Reaches altitude 10° 19:17:09 10° 242° (WSW) 1,281 4.3 -19.3°
Maximum altitude 19:19:53 40° 314° (NW) 506 2.1 -19.9°
Enters shadow 19:20:27 35° 348° (NNW) 560 2.1 -20.1°
